STARLINK-30046 (55710 NORAD) Tracking and Keplerian Element Data

This shows tracking and keplerian element data for the satellite.

Feedback or suggestion? Click here.




ElementValue
Catalog55710
NameSTARLINK-30046
Epoch Orbit166
Epoch Day63.00001157
Epoch Year2023
RAAN259.1071
Inclination43.0107
Eccentricity0.0001447
Argument of Perigee275.419
Mean Anonmoly299.0418
Mean Motion15.66415285
Decay Rate-0.00792586
L11 55710U 23026R 23063.00001157 -.00792586 00000+0 -81553-2 0 9991
L22 55710 43.0107 259.1071 0001447 275.4190 299.0418 15.66415285 1663



Live tracking and technical data element details for STARLINK-30046 (NORAD 55710). STARLINK-30046 can be tracked NOW for your location showing map with azimuth and elevation plus other details from your city location.







IsCatalogInMostPopularTable: catalog: 55710, numindb: 2
Update: records affected: 1



GetName: 55710 STARLINK-30046

Hit Count: updated at: Wed, 22 Mar 2023 15:33:18 GMT